RH
56 56 55 55 54 54 54 54 54 54 54 54 54 53 52 51 50 49 48 47 47 47 47 47 47 47 48 47 46 45 44 43 42 40 39 38 37 36 35 32 29 27
58 57 56 56 56 55 54 53 53 53 53 53 53 53 52 52 51 50 49 48 47 47 46 46 47 47 48 48 47 46 46 45 44 42 41 39 38 37 36 35 32 29
55 55 56 56 54 54 52 53 54 53 53 53 52 52 51 51 51 50 49 48 46 46 45 45 46 46 47 47 48 47 47 46 45 44 43 40 39 39 37 36 35 32
52 53 53 53 53 52 51 52 53 53 52 52 51 50 50 49 49 49 48 47 46 45 45 45 45 46 47 47 47 48 47 47 46 45 45 43 41 39 38 38 37 35
50 50 50 50 51 50 52 53 52 51 51 50 49 48 49 49 48 48 48 47 46 45 44 44 44 45 46 47 47 48 48 48 47 46 46 45 43 41 40 39 38 37
51 52 51 51 51 50 51 51 50 49 50 49 48 48 48 48 48 48 48 47 47 46 44 44 44 44 45 46 47 47 48 48 47 47 46 45 44 43 42 41 39 39
45 46 48 49 52 53 53 53 51 51 49 49 49 48 48 48 48 48 48 48 47 47 46 44 44 44 44 45 47 47 48 48 47 47 47 46 45 43 42 42 41 40
38 39 39 41 44 48 52 54 55 55 53 52 51 50 50 49 49 48 48 49 49 48 48 47 45 44 44 44 45 46 47 48 48 48 47 46 46 44 42 42 41 41
39 38 38 40 41 45 51 54 56 58 58 58 56 54 53 52 51 51 50 50 50 50 50 49 48 46 45 44 44 45 46 47 47 47 47 47 46 45 44 42 42 41
39 39 40 41 42 45 49 53 56 58 60 61 61 60 58 56 55 54 53 53 52 52 51 51 51 48 47 45 44 44 45 46 47 47 47 47 46 46 45 43 43 42
44 42 42 42 41 43 44 47 51 53 55 58 59 61 61 60 60 58 57 56 54 54 53 53 53 51 50 48 46 45 45 45 47 47 47 47 47 47 47 46 45 43
53 49 48 47 47 47 47 47 49 50 51 52 52 54 55 57 60 60 61 60 58 57 57 56 56 55 53 51 48 47 47 46 47 48 49 49 48 48 48 48 47 45
57 55 54 53 53 54 54 55 55 54 54 54 53 52 51 50 52 55 58 60 61 61 60 59 58 58 57 54 52 49 48 48 48 49 50 50 51 50 50 50 50 49
62 61 60 59 58 58 58 58 59 60 60 60 60 59 58 56 53 52 52 54 57 60 61 62 61 60 59 57 54 52 50 49 49 50 52 52 52 53 52 53 53 52
66 66 64 63 63 62 62 62 61 62 63 64 66 67 67 67 65 63 61 58 58 58 59 62 63 63 62 60 58 55 52 51 51 52 54 55 56 56 56 57 57 58
69 68 67 66 66 65 65 65 64 64 64 65 68 70 71 74 74 74 74 73 72 69 67 67 66 65 66 65 65 63 59 56 56 57 58 59 61 62 62 62 62 61
73 73 72 69 70 69 68 68 67 66 65 65 67 69 72 75 76 78 80 81 81 81 80 79 76 75 74 72 72 73 74 71 66 65 65 66 67 68 68 68 67 65
80 80 78 75 75 75 74 72 69 68 67 66 67 70 72 75 77 79 80 82 83 84 85 85 85 84 83 82 84 88 90 88 82 76 74 73 73 74 73 73 72 71
88 88 87 87 85 81 77 73 71 70 69 69 70 72 73 74 76 77 79 80 82 84 86 87 87 87 87 90 96 99 98 97 96 92 86 81 79 79 79 78 77 77
95 96 97 97 93 84 78 75 74 73 71 72 75 76 76 77 78 78 79 80 82 84 86 87 87 89 94 97 100 101 99 97 99 100 97 92 86 82 81 81 80 80
100 101 100 102 98 88 80 78 78 77 76 78 83 82 81 83 82 82 82 81 82 83 85 85 84 88 98 102 100 100 100 98 99 100 100 99 96 90 85 82 81 82
103 102 100 102 98 88 83 81 81 81 82 85 88 85 83 84 84 84 84 84 83 83 86 86 82 86 97 102 100 100 100 98 100 101 100 100 100 98 94 89 85 85
103 102 101 102 97 89 86 84 82 84 88 89 90 88 85 84 84 82 83 86 86 84 87 87 82 85 96 102 100 100 100 100 101 100 98 99 101 100 99 98 95 93
103 102 101 101 96 90 87 84 82 85 88 89 90 90 87 84 85 83 80 83 86 84 86 87 82 80 89 98 101 100 100 101 100 99 96 96 100 101 99 100 100 98
103 102 103 102 96 89 83 79 80 83 84 84 85 86 85 82 82 82 78 77 80 80 79 79 76 69 73 90 101 99 99 101 100 101 100 98 99 100 99 100 101 101
98 98 100 99 93 88 81 75 77 79 78 78 78 78 79 78 77 77 76 73 72 73 70 70 70 64 63 79 95 95 95 98 98 98 100 100 99 98 96 95 94 95
Wind_Speed
40 40 40 40 40 40 40 40 39 38 38 38 38 40 41 42 42 42 43 44 44 46 47 47 47 47 47 46 45 45 46 46 46 45 44 45 46 46 45 45 45 43
39 39 39 38 39 40 41 42 41 40 39 39 40 40 41 41 41 41 42 42 43 45 46 46 47 47 46 46 45 45 46 45 46 45 44 46 46 46 47 46 45 46
37 38 38 39 40 41 42 42 41 40 39 40 40 40 41 41 41 41 41 41 42 44 44 45 46 46 46 46 45 45 46 46 46 45 44 46 46 45 46 45 45 46
33 34 36 38 39 40 41 39 38 39 39 40 41 41 41 40 40 39 40 41 42 43 43 44 45 45 45 46 45 45 47 46 46 44 43 45 45 45 45 44 44 45
28 30 32 34 36 37 37 36 37 39 39 40 41 41 40 39 39 39 39 40 41 42 43 43 44 44 44 45 44 45 46 45 45 43 43 45 44 44 45 43 43 44
20 23 26 29 31 33 34 35 37 38 38 40 40 40 39 38 38 39 39 40 40 42 42 42 43 43 44 44 44 46 46 45 44 42 43 45 44 43 43 42 42 43
16 17 18 21 23 26 30 33 35 36 38 39 39 39 38 37 38 39 39 39 40 40 41 42 42 42 43 43 43 45 45 44 43 41 43 45 43 42 43 42 42 43
19 19 19 19 20 21 24 27 30 32 34 36 37 38 37 37 38 38 38 38 38 39 40 41 42 43 42 42 43 44 44 43 43 41 43 44 42 42 43 41 41 43
21 20 20 19 20 20 22 23 25 27 29 31 34 35 35 35 36 36 37 36 37 38 39 39 41 42 42 42 43 45 44 43 43 42 43 44 43 43 43 42 41 43
21 20 20 19 20 20 21 21 22 23 24 26 29 31 32 33 34 34 34 35 35 37 37 38 39 40 41 42 44 45 45 45 44 43 44 44 44 45 43 42 42 43
24 23 22 22 22 22 22 22 21 20 20 21 22 25 27 29 30 31 32 33 34 36 36 37 38 39 40 42 44 44 44 45 44 44 44 45 45 45 44 42 42 43
25 24 24 23 23 23 22 22 21 20 20 19 19 20 21 22 24 26 28 30 32 33 35 35 36 37 38 40 42 42 43 43 43 43 43 44 44 43 43 42 42 43
24 23 23 23 22 22 21 21 20 20 20 19 19 19 19 19 19 20 22 24 27 29 30 32 33 34 36 37 39 39 40 41 41 41 41 41 42 42 42 41 42 43
23 23 24 24 23 23 22 22 22 21 20 20 19 19 19 19 19 18 18 19 21 22 25 27 28 30 32 33 35 36 37 39 39 39 39 39 40 41 40 40 41 41
25 25 26 26 26 25 25 25 24 23 22 21 20 19 19 19 18 18 18 18 17 17 18 20 21 24 26 27 30 32 34 35 36 37 37 37 38 38 38 38 39 39
27 28 28 27 27 26 26 26 25 25 24 23 21 20 19 18 18 18 17 17 17 16 16 15 16 17 19 20 22 25 28 31 32 33 34 34 35 35 35 36 36 37
28 29 28 28 27 27 27 26 26 25 24 23 23 21 20 19 19 18 17 17 17 17 16 15 15 14 15 16 17 18 21 25 28 30 31 32 32 33 33 33 33 34
28 28 28 27 27 26 26 27 26 25 25 24 23 23 22 21 20 19 18 17 17 17 16 16 15 14 14 14 14 14 15 19 23 26 28 29 31 31 31 31 30 31
27 27 26 26 26 26 27 26 26 25 25 24 23 22 22 21 21 20 19 18 18 17 17 16 15 14 14 14 13 13 14 16 20 23 26 27 28 29 30 29 29 29
25 25 25 25 26 26 27 26 25 25 24 23 23 22 21 21 20 20 19 18 18 18 18 17 16 15 14 13 13 13 14 15 18 21 23 26 28 28 28 29 29 28
25 25 25 25 25 26 26 25 24 24 23 23 22 21 20 19 19 18 18 18 18 18 18 17 16 15 14 14 14 14 14 15 17 19 20 22 25 28 28 29 29 29
26 25 25 24 25 26 25 25 25 24 23 22 22 21 20 19 19 18 18 18 17 17 17 17 16 14 14 14 14 14 14 15 16 17 18 18 19 23 26 28 28 29
25 25 24 24 24 25 25 25 24 23 22 22 22 22 21 20 20 18 17 17 16 16 17 17 16 15 15 15 14 14 14 15 16 17 17 17 16 17 20 24 26 27
24 23 23 23 23 23 23 23 22 21 21 21 21 20 19 19 19 18 17 16 16 16 17 17 17 16 16 16 15 15 14 16 18 17 16 15 15 14 15 19 22 23
23 22 21 21 21 21 22 22 21 20 20 19 19 18 18 18 17 17 17 16 17 17 17 18 18 17 17 17 17 16 16 17 18 17 15 14 13 12 12 13 16 18
21 21 19 19 20 20 21 21 20 20 19 19 18 18 17 17 17 17 17 16 16 17 17 17 18 18 17 17 17 17 17 17 17 16 15 14 14 13 13 13 13 15
Wind_Direction
240 240 241 242 244 245 247 248 248 248 247 247 246 247 247 248 249 247 245 244 243 242 242 241 239 239 238 237 236 235 235 235 235 235 233 233 234 233 233 233 232 232
244 244 244 244 246 248 249 250 250 249 249 249 249 250 251 251 250 249 247 246 244 243 243 241 240 239 238 237 235 235 235 235 235 235 233 234 234 234 234 234 233 233
249 248 247 248 249 251 252 252 252 252 252 252 252 252 252 252 251 250 249 248 246 246 244 242 241 239 238 237 236 235 235 235 235 234 233 234 234 234 234 234 234 234
257 256 255 255 255 256 257 256 255 255 255 255 255 254 253 253 252 251 250 249 248 247 245 243 242 240 238 237 236 235 235 235 236 234 233 235 235 234 235 234 234 235
269 268 266 264 263 263 263 261 260 260 258 258 258 257 255 253 252 251 250 249 248 247 246 244 243 241 239 237 236 235 236 236 236 234 233 235 235 234 234 233 233 234
290 285 280 277 274 272 269 267 267 265 263 263 262 261 258 256 254 251 250 249 248 247 246 244 243 241 239 237 236 235 235 235 235 233 232 235 235 234 234 232 232 233
328 318 309 300 292 285 279 276 274 271 269 268 266 264 261 258 257 254 252 250 248 247 246 244 243 242 239 237 235 236 236 235 235 233 232 234 235 234 233 232 232 233
342 337 332 324 315 305 296 290 285 281 278 273 269 267 265 262 260 258 255 253 250 248 247 245 244 243 240 237 235 236 236 235 234 232 232 234 233 233 233 231 231 232
343 339 336 332 327 321 315 308 301 296 289 281 276 273 270 266 263 262 259 256 254 252 250 247 245 243 241 237 236 236 235 235 234 232 232 233 232 233 233 231 230 232
349 346 342 339 337 334 331 327 320 313 305 294 287 282 277 273 270 267 264 261 258 256 254 251 248 245 242 238 237 237 236 236 235 233 233 233 233 233 233 230 229 231
353 351 349 347 344 340 336 334 330 327 321 313 304 296 289 284 280 275 270 266 263 261 259 256 252 248 243 241 239 238 237 237 236 235 234 234 235 234 234 232 230 231
354 353 353 351 349 345 341 337 334 331 329 326 321 314 306 298 291 284 278 273 270 268 264 261 258 253 247 244 242 239 238 238 237 236 236 236 236 236 235 233 232 233
355 355 353 353 351 348 344 341 338 336 333 331 328 325 321 316 309 301 292 285 279 276 272 268 264 259 253 248 245 242 239 238 238 237 237 237 237 237 237 235 234 234
354 353 351 350 348 344 342 340 338 337 334 332 329 327 325 324 323 319 312 304 296 289 283 278 271 266 260 254 249 244 241 239 239 237 237 237 238 239 238 237 236 235
350 348 347 346 343 341 340 338 336 335 334 332 331 328 325 323 322 321 319 316 311 305 297 289 280 273 267 261 255 249 244 241 240 239 238 238 239 239 239 238 237 236
346 345 345 344 342 341 339 337 335 334 333 333 332 330 329 325 322 320 319 318 316 314 309 304 295 286 278 270 263 257 251 247 243 241 240 240 240 240 240 239 238 237
344 344 343 343 342 340 338 336 335 333 332 331 331 330 330 329 328 326 324 322 320 318 317 315 310 305 296 286 277 268 260 254 249 246 243 242 241 241 241 240 239 238
343 342 341 341 340 338 337 336 335 334 333 332 331 331 330 329 330 330 329 328 326 323 323 322 318 316 311 304 295 282 269 261 256 252 248 245 243 242 242 241 239 238
339 338 337 338 338 337 337 337 337 336 336 335 333 332 331 330 330 331 331 332 332 330 329 327 325 323 319 314 306 295 282 272 265 260 253 250 248 245 243 241 239 237
335 335 335 335 338 339 338 339 339 338 338 338 337 335 334 333 333 333 333 334 334 334 332 332 332 331 327 321 312 303 294 283 277 272 263 255 252 249 246 243 240 236
334 334 334 336 338 339 339 340 340 340 341 341 341 340 339 338 337 337 336 336 335 335 334 334 336 337 334 327 319 311 304 295 290 288 281 267 257 252 247 244 242 237
334 334 334 337 339 340 341 342 342 342 344 345 343 342 341 342 342 342 341 340 338 339 339 338 340 342 340 336 330 322 316 312 307 304 301 291 273 259 251 246 242 237
334 334 334 337 341 343 344 345 345 345 346 348 346 344 344 344 344 345 346 345 344 345 346 344 346 350 348 345 341 335 329 328 328 325 321 313 298 278 261 252 245 239
333 333 334 337 342 345 346 347 348 348 347 349 349 347 346 345 345 345 348 351 351 351 352 350 349 352 355 352 349 345 342 340 340 341 338 330 318 298 272 256 248 242
334 335 336 339 343 345 348 350 351 350 349 350 350 349 348 347 348 348 348 351 353 351 352 352 348 347 350 351 348 346 345 345 347 348 348 344 336 323 300 276 261 249
340 343 343 344 344 345 347 348 351 352 352 351 349 349 348 347 349 349 346 345 347 347 348 350 347 343 342 345 346 343 342 343 345 347 346 342 336 328 316 303 290 275